Weather History for Crisp Cnty-Cordele AP, Cordel, GA

Change the Weather History Date:

Sunday, April 27, 2014

  Actual Average (KABY) Record (KABY)
Temperature  
Mean Temperature 76 °F 69 °F  
Max Temperature 90 °F 82 °F 93 °F (2011)
Min Temperature 63 °F 56 °F 40 °F (1983)
Degree Days  
Heating Degree Days 0 1  
Month to date heating degree days 64  
Since 1 July heating degree days 1833  
Cooling Degree Days 12 5  
Month to date cooling degree days 86  
Year to date cooling degree days 124  
Growing Degree Days 26 (Base 50)    
Moisture  
Dew Point 64 °F    
Average Humidity 69    
Maximum Humidity 91    
Minimum Humidity 36    
Precipitation  
Precipitation 0.00 in - 0.00 in (2014)
Sea Level Pressure  
Sea Level Pressure 29.98 in    
Wind  
Wind Speed 2 mph (South)    
Max Wind Speed 13 mph    
Max Gust Speed 18 mph    
Visibility 10 miles    
Events      
T = Trace of Precipitation, MM = Missing Value Source: NWS Daily Summary

Daily Weather History Graph

Daily Weather History Graph

Search for Another Location

Airport:

Trip Planner

Search our weather history database for the weather conditions in past years. The results will help you decide how hot, cold, wet, or windy it might be!

Date:

Astronomy

Apr. 27, 2014 Rise Set
Actual Time 6:53 AM EDT 8:12 PM EDT
Civil Twilight 6:27 AM EDT 8:38 PM EDT
Nautical Twilight 5:56 AM EDT 9:09 PM EDT
Astronomical Twilight 5:24 AM EDT 9:41 PM EDT
Moon 5:45 AM EDT (4/27) 6:50 PM EDT (4/27)
Length of Visible Light 14h 11m
Length of Day
13h 19m
Waning Crescent, 3% of the Moon is Illuminated
Apr 27
Waning Crescent
Apr 29
New
May 6
First Quarter
May 14
Full
May 21
Last Quarter

Hourly Weather History & Observations

Time (EDT) Temp. Heat Index Dew Point Humidity Pressure Visibility Wind Dir Wind Speed Gust Speed Precip Events Conditions
12:15 AM 66.7 °F - 62.8 °F 87% 30.00 in 10.0 mi Calm Calm - N/A   Clear
12:35 AM 66.6 °F - 62.1 °F 85% 30.00 in 10.0 mi Calm Calm - N/A   Clear
12:55 AM 66.0 °F - 61.9 °F 86% 30.00 in 10.0 mi Calm Calm - N/A   Clear
1:15 AM 66.2 °F - 61.9 °F 86% 29.99 in 10.0 mi Calm Calm - N/A   Clear
1:35 AM 65.7 °F - 61.7 °F 87% 29.99 in 10.0 mi Calm Calm - N/A   Clear
1:55 AM 65.3 °F - 61.3 °F 87% 29.99 in 10.0 mi Calm Calm - N/A   Clear
2:15 AM 65.3 °F - 61.5 °F 88% 29.99 in 10.0 mi Calm Calm - N/A   Clear
2:35 AM 65.3 °F - 62.2 °F 90% 29.98 in 10.0 mi Calm Calm - N/A   Clear
2:55 AM 65.3 °F - 61.0 °F 86% 29.98 in 10.0 mi Calm Calm - N/A   Clear
3:15 AM 64.8 °F - 61.0 °F 88% 29.97 in 10.0 mi Calm Calm - N/A   Clear
3:35 AM 64.6 °F - 61.0 °F 88% 29.97 in 10.0 mi Calm Calm - N/A   Clear
3:55 AM 64.6 °F - 60.8 °F 88% 29.97 in 10.0 mi Calm Calm - N/A   Clear
4:15 AM 64.6 °F - 61.2 °F 89% 29.98 in 10.0 mi Calm Calm - N/A   Clear
4:35 AM 64.0 °F - 60.8 °F 89% 29.97 in 10.0 mi Calm Calm - N/A   Clear
4:55 AM 64.4 °F - 61.0 °F 89% 29.97 in 10.0 mi Calm Calm - N/A   Clear
5:15 AM 64.4 °F - 60.8 °F 88% 29.97 in 10.0 mi Calm Calm - N/A   Clear
5:35 AM 63.7 °F - 60.3 °F 89% 29.97 in 10.0 mi Calm Calm - N/A   Clear
5:55 AM 64.0 °F - 60.6 °F 89% 29.97 in 10.0 mi Calm Calm - N/A   Clear
6:15 AM 63.5 °F - 60.8 °F 91% 29.98 in 10.0 mi Calm Calm - N/A   Clear
6:35 AM 63.5 °F - 60.4 °F 90% 29.99 in 10.0 mi Calm Calm - N/A   Clear
6:55 AM 63.1 °F - 60.4 °F 91% 29.99 in 7.0 mi Calm Calm - N/A   Clear
7:15 AM 63.5 °F - 60.4 °F 90% 30.00 in 10.0 mi Calm Calm - N/A   Clear
7:35 AM 63.9 °F - 61.0 °F 90% 30.01 in 7.0 mi Calm Calm - N/A   Clear
7:55 AM 66.0 °F - 62.8 °F 89% 30.02 in 7.0 mi Calm Calm - N/A   Clear
8:15 AM 69.8 °F - 66.4 °F 89% 30.03 in 7.0 mi SE 3.5 mph - N/A   Clear
8:35 AM 71.8 °F - 67.1 °F 85% 30.04 in 10.0 mi South 3.5 mph - N/A   Clear
8:55 AM 73.6 °F - 67.6 °F 82% 30.04 in 10.0 mi SSW 3.5 mph - N/A   Clear
9:15 AM 74.8 °F - 67.8 °F 79% 30.04 in 10.0 mi SSW 4.6 mph - N/A   Clear
9:35 AM 76.5 °F - 68.2 °F 75% 30.03 in 10.0 mi South 3.5 mph - N/A   Clear
9:55 AM 77.4 °F - 67.8 °F 72% 30.03 in 10.0 mi South 3.5 mph - N/A   Clear
10:15 AM 78.8 °F - 68.2 °F 70% 30.03 in 10.0 mi SSE 4.6 mph - N/A   Clear
10:35 AM 79.9 °F - 67.3 °F 65% 30.03 in 10.0 mi South 4.6 mph - N/A   Clear
10:55 AM 81.5 °F 83.9 °F 66.9 °F 61% 30.03 in 10.0 mi ESE 4.6 mph - N/A   Clear
11:15 AM 82.9 °F 85.6 °F 67.3 °F 59% 30.03 in 10.0 mi ESE 4.6 mph - N/A   Clear
11:35 AM 83.7 °F 86.7 °F 68.0 °F 59% 30.02 in 10.0 mi South 6.9 mph - N/A   Clear
11:55 AM 84.9 °F 87.1 °F 66.0 °F 53% 30.02 in 10.0 mi SSE 8.1 mph - N/A   Clear
12:15 PM 85.3 °F 87.4 °F 65.7 °F 52% 30.01 in 10.0 mi SSE 9.2 mph - N/A   Scattered Clouds
12:35 PM 84.9 °F 87.1 °F 66.0 °F 53% 30.01 in 10.0 mi SSE 10.4 mph - N/A   Mostly Cloudy
12:55 PM 85.8 °F 88.2 °F 66.2 °F 52% 30.00 in 10.0 mi SSE 9.2 mph - N/A   Overcast
1:15 PM 85.3 °F 87.1 °F 65.5 °F 51% 29.99 in 10.0 mi SSE 9.2 mph - N/A   Mostly Cloudy
1:35 PM 87.6 °F 89.4 °F 65.3 °F 47% 29.98 in 10.0 mi SSE 8.1 mph - N/A   Mostly Cloudy
1:55 PM 86.4 °F 88.1 °F 64.9 °F 49% 29.99 in 10.0 mi SSE 4.6 mph - N/A   Mostly Cloudy
2:15 PM 87.4 °F 89.1 °F 64.9 °F 47% 29.98 in 10.0 mi SW 6.9 mph - N/A   Scattered Clouds
2:35 PM 88.0 °F 89.0 °F 63.9 °F 44% 29.97 in 10.0 mi SSW 6.9 mph - N/A   Scattered Clouds
2:55 PM 88.3 °F 88.9 °F 62.6 °F 42% 29.97 in 10.0 mi SSW 12.7 mph 16.1 mph N/A   Scattered Clouds
3:15 PM 89.2 °F 89.6 °F 62.2 °F 40% 29.96 in 10.0 mi SSW 10.4 mph - N/A   Clear
3:35 PM 90.3 °F 90.8 °F 62.6 °F 39% 29.95 in 10.0 mi South 11.5 mph 16.1 mph N/A   Scattered Clouds
4:15 PM 90.5 °F 90.4 °F 60.8 °F 37% 29.94 in 10.0 mi SSW 12.7 mph 17.3 mph N/A   Scattered Clouds
4:55 PM 89.8 °F 89.1 °F 59.5 °F 36% 29.93 in 10.0 mi SSW 8.1 mph - N/A   Clear
5:15 PM 89.2 °F 89.3 °F 61.3 °F 39% 29.93 in 10.0 mi SW 6.9 mph - N/A   Scattered Clouds
5:35 PM 88.2 °F 89.0 °F 62.8 °F 43% 29.93 in 10.0 mi SSW 11.5 mph - N/A   Mostly Cloudy
5:55 PM 88.0 °F 88.7 °F 63.0 °F 43% 29.93 in 10.0 mi SW 9.2 mph 18.4 mph N/A   Scattered Clouds
6:15 PM 87.8 °F 88.5 °F 62.8 °F 43% 29.93 in 10.0 mi SSW 8.1 mph - N/A   Clear
6:35 PM 87.1 °F 88.0 °F 63.7 °F 45% 29.93 in 10.0 mi SW 3.5 mph - N/A   Clear
6:55 PM 86.0 °F 87.1 °F 63.3 °F 47% 29.93 in 10.0 mi South 8.1 mph - N/A   Clear
7:15 PM 85.1 °F 85.9 °F 62.8 °F 47% 29.93 in 10.0 mi SW 4.6 mph - N/A   Clear
7:35 PM 84.4 °F 85.4 °F 63.5 °F 49% 29.94 in 10.0 mi SW 3.5 mph - N/A   Clear
7:55 PM 81.7 °F 83.8 °F 66.0 °F 59% 29.94 in 10.0 mi Calm Calm - N/A   Clear
8:15 PM 79.9 °F - 66.9 °F 64% 29.93 in 10.0 mi Calm Calm - N/A   Clear
8:35 PM 78.8 °F - 66.7 °F 66% 29.93 in 10.0 mi Calm Calm - N/A   Clear
8:55 PM 77.4 °F - 66.9 °F 70% 29.93 in 10.0 mi Calm Calm - N/A   Clear
9:15 PM 76.8 °F - 67.1 °F 72% 29.94 in 10.0 mi Calm Calm - N/A   Clear
9:35 PM 75.6 °F - 67.3 °F 75% 29.94 in 10.0 mi Calm Calm - N/A   Clear
9:55 PM 76.1 °F - 67.3 °F 74% 29.95 in 10.0 mi Calm Calm - N/A   Clear
10:15 PM 75.6 °F - 67.8 °F 77% 29.95 in 10.0 mi Calm Calm - N/A   Clear
10:35 PM 78.8 °F - 67.1 °F 67% 29.95 in 10.0 mi South 4.6 mph - N/A   Clear
10:55 PM 79.0 °F - 66.7 °F 66% 29.95 in 10.0 mi South 5.8 mph - N/A   Clear
11:15 PM 78.8 °F - 66.7 °F 66% 29.95 in 10.0 mi SSW 4.6 mph - N/A   Clear
11:35 PM 78.3 °F - 65.7 °F 65% 29.94 in 10.0 mi South 3.5 mph - N/A   Clear
11:55 PM 77.9 °F - 64.6 °F 63% 29.94 in 10.0 mi South 4.6 mph - N/A   Clear